Zurück zum Katalog

COSMOS 1275 DEB

AktivPO
NORAD 12697·DEBRIS·🇷🇺 Russia

Gestartet Jun 4, 1981 von Plesetsk Cosmodrome

Loading…

Nächste Überflüge (nächste 24 Stunden)

TLE

AktuellSource: Space-Track

Epoche: Sep 14, 2026, 03:13 UTC

1 12697U 81053AR  26257.13435255  .00000626  00000-0  55411-3 0  9995
2 12697  82.7775 310.2050 0082084 285.2883 102.8848 13.82129025259080

Verfolge COSMOS 1275 DEB in Echtzeit mit AllMySat

Download on the App Store